Weather History for K20V - September, 2013

Change the Weather History Date:

Wednesday, September 11, 2013

  Actual Average (KEGE) Record (KEGE)
Temperature  
Mean Temperature 61 °F -  
Max Temperature 69 °F 75 °F 89 °F (1990)
Min Temperature 53 °F 40 °F 27 °F (1951)
Degree Days  
Heating Degree Days 4    
Growing Degree Days 11 (Base 50)    
Moisture  
Dew Point 51 °F    
Average Humidity 75    
Maximum Humidity 94    
Minimum Humidity 49    
Precipitation  
Precipitation 0.04 in - - ()
Sea Level Pressure  
Sea Level Pressure 30.31 in    
Wind  
Wind Speed 1 mph (WNW)    
Max Wind Speed 9 mph    
Max Gust Speed -    
Visibility 10 miles    
Events Rain , Thunderstorm    
Averages and records for this station are not official NWS values.
T = Trace of Precipitation, MM = Missing Value Source: NWS Daily Summary

Daily Weather History Graph

Daily Weather History Graph

Search for Another Location

Airport or City:

Trip Planner

Search our weather history database for the weather conditions in past years. The results will help you decide how hot, cold, wet, or windy it might be!

Date:

Astronomy

Sep. 11, 2013 Rise Set
Actual Time 6:42 AM MDT 7:20 PM MDT
Civil Twilight 6:15 AM MDT 7:47 PM MDT
Nautical Twilight 5:43 AM MDT 8:19 PM MDT
Astronomical Twilight 5:10 AM MDT 8:52 PM MDT
Moon 1:13 PM MDT (9/11) 11:18 PM MDT (9/11)
Length of Visible Light 13h 31m
Length of Day
12h 37m
Waxing Crescent, 39% of the Moon is Illuminated
Sep 11
Waxing Crescent
Sep 12
First Quarter
Sep 19
Full
Sep 26
Last Quarter
Oct 4
New

Hourly Weather History & Observations

Time (MDT) Temp. Dew Point Humidity Pressure Visibility Wind Dir Wind Speed Gust Speed Precip Events Conditions
12:16 AM 53.6 °F 50.0 °F 88% 30.31 in 10.0 mi Calm Calm - N/A   Drizzle
12:36 AM 53.6 °F 51.8 °F 94% 30.30 in 10.0 mi Calm Calm - 0.01 in   Drizzle
12:56 AM 53.6 °F 51.8 °F 94% 30.31 in 10.0 mi SW 4.6 mph - 0.01 in   Light Drizzle
1:16 AM 53.6 °F 51.8 °F 94% 30.31 in 10.0 mi Calm Calm - N/A Rain Light Rain
1:36 AM 53.6 °F 50.0 °F 88% 30.31 in 10.0 mi Calm Calm - 0.01 in   Light Drizzle
1:56 AM 53.6 °F 50.0 °F 88% 30.31 in 10.0 mi Calm Calm - 0.01 in   Overcast
2:16 AM 53.6 °F 50.0 °F 88% 30.31 in 10.0 mi Calm Calm - N/A   Overcast
2:36 AM 53.6 °F 50.0 °F 88% 30.31 in 10.0 mi Calm Calm - N/A Rain Light Rain
2:56 AM 53.6 °F 50.0 °F 88% 30.30 in 10.0 mi Calm Calm - N/A   Overcast
3:16 AM 53.6 °F 50.0 °F 88% 30.30 in 10.0 mi Calm Calm - N/A   Overcast
3:36 AM 53.6 °F 50.0 °F 88% 30.29 in 10.0 mi Calm Calm - N/A   Overcast
3:56 AM 53.6 °F 50.0 °F 88% 30.29 in 10.0 mi Calm Calm - N/A   Overcast
4:16 AM 53.6 °F 50.0 °F 88% 30.29 in 10.0 mi Calm Calm - N/A   Overcast
4:36 AM 53.6 °F 50.0 °F 88% 30.30 in 10.0 mi Calm Calm - N/A   Overcast
4:56 AM 53.6 °F 50.0 °F 88% 30.29 in 10.0 mi Calm Calm - N/A   Mostly Cloudy
5:16 AM 53.6 °F 51.8 °F 94% 30.29 in 10.0 mi Calm Calm - N/A   Mostly Cloudy
5:36 AM 53.6 °F 51.8 °F 94% 30.30 in 10.0 mi Calm Calm - N/A   Overcast
5:56 AM 53.6 °F 50.0 °F 88% 30.30 in 10.0 mi Calm Calm - N/A   Overcast
6:16 AM 53.6 °F 50.0 °F 88% 30.30 in 10.0 mi Calm Calm - N/A   Mostly Cloudy
6:35 AM 53.6 °F 51.8 °F 94% 30.31 in 10.0 mi Calm Calm - N/A   Mostly Cloudy
6:56 AM 53.6 °F 51.8 °F 94% 30.31 in 10.0 mi Calm Calm - N/A   Mostly Cloudy
7:16 AM 53.6 °F 51.8 °F 94% 30.32 in 10.0 mi Calm Calm - N/A   Scattered Clouds
7:36 AM 53.6 °F 51.8 °F 94% 30.32 in 10.0 mi Calm Calm - N/A   Scattered Clouds
7:56 AM 53.6 °F 50.0 °F 88% 30.32 in 10.0 mi Calm Calm - N/A   Scattered Clouds
8:15 AM 53.6 °F 50.0 °F 88% 30.32 in 10.0 mi Calm Calm - N/A   Overcast
8:36 AM 55.4 °F 51.8 °F 88% 30.32 in 10.0 mi Calm Calm - N/A   Scattered Clouds
8:56 AM 59.0 °F 51.8 °F 77% 30.32 in 10.0 mi Calm Calm - N/A   Clear
9:16 AM 59.0 °F 50.0 °F 72% 30.32 in 10.0 mi Calm Calm - N/A   Clear
9:36 AM 59.0 °F 50.0 °F 72% 30.32 in 10.0 mi Calm Calm - N/A   Clear
9:56 AM 59.0 °F 50.0 °F 72% 30.32 in 10.0 mi Calm Calm - N/A   Scattered Clouds
10:16 AM 60.8 °F 50.0 °F 68% 30.32 in 10.0 mi Calm Calm - N/A   Scattered Clouds
10:36 AM 60.8 °F 50.0 °F 68% 30.32 in 10.0 mi Calm Calm - N/A   Clear
10:56 AM 60.8 °F 50.0 °F 68% 30.32 in 10.0 mi Calm Calm - N/A   Scattered Clouds
11:16 AM 60.8 °F 50.0 °F 68% 30.32 in 10.0 mi Calm Calm - N/A   Scattered Clouds
11:36 AM 60.8 °F 50.0 °F 68% 30.32 in 10.0 mi Calm Calm - N/A Rain Light Rain
11:56 AM 62.6 °F 50.0 °F 63% 30.32 in 10.0 mi Calm Calm - N/A Rain Light Rain
12:16 PM 66.2 °F 51.8 °F 60% 30.31 in 10.0 mi Calm Calm - N/A   Scattered Clouds
12:36 PM 66.2 °F 51.8 °F 60% 30.31 in 10.0 mi Calm Calm - N/A   Scattered Clouds
12:56 PM 66.2 °F 50.0 °F 56% 30.31 in 10.0 mi Calm Calm - N/A   Mostly Cloudy
1:16 PM 69.8 °F 50.0 °F 49% 30.29 in 10.0 mi Calm Calm - N/A   Scattered Clouds
1:36 PM 69.8 °F 50.0 °F 49% 30.29 in 10.0 mi Calm Calm - N/A   Scattered Clouds
1:56 PM 69.8 °F 50.0 °F 49% 30.28 in 10.0 mi West 4.6 mph - N/A Rain Light Rain
2:16 PM 69.8 °F 51.8 °F 53% 30.28 in 10.0 mi NW 3.5 mph - N/A Rain Light Rain
2:36 PM 69.8 °F 51.8 °F 53% 30.27 in 10.0 mi WSW 3.5 mph - N/A Rain Light Rain
2:56 PM 69.8 °F 51.8 °F 53% 30.27 in 10.0 mi Calm Calm - N/A Rain Light Rain
3:16 PM 69.8 °F 50.0 °F 49% 30.27 in 10.0 mi Calm Calm - N/A Thunderstorm Overcast
3:36 PM 69.8 °F 50.0 °F 49% 30.27 in 10.0 mi ESE 9.2 mph - N/A   Mostly Cloudy
3:55 PM 69.8 °F 50.0 °F 49% 30.27 in 10.0 mi ESE 5.8 mph - N/A   Mostly Cloudy
4:15 PM 69.8 °F 50.0 °F 49% 30.27 in 10.0 mi ESE 4.6 mph - N/A Thunderstorm Mostly Cloudy
4:36 PM 69.8 °F 50.0 °F 49% 30.27 in 10.0 mi SE 5.8 mph - N/A   Light Drizzle
4:56 PM 69.8 °F 51.8 °F 53% 30.26 in 10.0 mi Calm Calm - N/A Rain , Thunderstorm Light Thunderstorms and Rain
5:15 PM 69.8 °F 50.0 °F 49% 30.27 in 10.0 mi Calm Calm - N/A Thunderstorm Mostly Cloudy
5:36 PM 68.0 °F 53.6 °F 60% 30.28 in 10.0 mi South 8.1 mph - N/A Rain , Thunderstorm Light Thunderstorms and Rain
5:56 PM 64.4 °F 51.8 °F 64% 30.29 in 10.0 mi South 5.8 mph - N/A Rain Light Rain
6:16 PM 60.8 °F 53.6 °F 77% 30.29 in 7.0 mi Calm Calm - 0.01 in Rain Light Rain
6:36 PM 60.8 °F 53.6 °F 77% 30.30 in 10.0 mi SW 3.5 mph - 0.01 in Rain Light Rain
6:55 PM 60.8 °F 53.6 °F 77% 30.30 in 10.0 mi North 3.5 mph - 0.02 in Rain Light Rain
7:16 PM 59.0 °F 51.8 °F 77% 30.30 in 10.0 mi North 5.8 mph - N/A Thunderstorm Mostly Cloudy
7:35 PM 59.0 °F 51.8 °F 77% 30.31 in 10.0 mi NNW 4.6 mph - N/A   Overcast
7:56 PM 59.0 °F 51.8 °F 77% 30.32 in 10.0 mi NNW 5.8 mph - N/A   Mostly Cloudy
8:15 PM 59.0 °F 51.8 °F 77% 30.32 in 10.0 mi NNW 9.2 mph - N/A   Scattered Clouds
8:35 PM 59.0 °F 50.0 °F 72% 30.33 in 10.0 mi NNW 8.1 mph - N/A Thunderstorm Mostly Cloudy
8:56 PM 59.0 °F 50.0 °F 72% 30.34 in 10.0 mi NNW 5.8 mph - N/A   Overcast
9:16 PM 59.0 °F 51.8 °F 77% 30.34 in 10.0 mi Calm Calm - N/A   Overcast
9:35 PM 59.0 °F 51.8 °F 77% 30.35 in 10.0 mi Calm Calm - N/A   Overcast
9:56 PM 59.0 °F 53.6 °F 82% 30.35 in 10.0 mi Calm Calm - N/A   Overcast
10:16 PM 57.2 °F 51.8 °F 82% 30.35 in 10.0 mi Calm Calm - N/A   Mostly Cloudy
10:36 PM 55.4 °F 51.8 °F 88% 30.35 in 10.0 mi Calm Calm - N/A   Overcast
10:56 PM 55.4 °F 51.8 °F 88% 30.36 in 10.0 mi Calm Calm - N/A   Overcast
11:16 PM 55.4 °F 51.8 °F 88% 30.35 in 10.0 mi Calm Calm - N/A   Overcast
11:36 PM 55.4 °F 51.8 °F 88% 30.36 in 10.0 mi Calm Calm - N/A   Overcast
11:55 PM 55.4 °F 51.8 °F 88% 30.35 in 10.0 mi Calm Calm - N/A   Overcast